SCP
1 1 1 1 1 1 1 1 1 1 1 1 1 1 2 2 2 2 2 2 2 2 2 2 2 2 2 1 1 1 1 1 1 1 1 1 1 1 1 1 1 1 1
1 1 1 1 1 1 1 1 1 1 1 1 1 1 1 1 1 1 1 2 2 2 2 2 2 1 1 1 1 1 1 1 1 1 1 1 1 1 1 1 1 1 1
1 1 1 1 1 1 1 1 1 1 1 1 1 1 2 1 1 1 1 1 2 2 2 2 2 1 1 1 1 1 1 1 1 1 1 1 1 1 1 1 1 1 2
1 1 1 1 1 1 1 1 1 1 1 1 1 2 2 2 2 1 1 1 2 2 2 2 2 2 2 1 1 1 1 1 1 1 1 1 1 1 1 1 1 1 1
1 1 1 1 1 1 1 1 1 1 1 1 1 1 2 2 2 2 2 2 2 2 2 2 2 2 2 1 1 1 1 1 1 1 1 1 1 1 1 1 1 1 1
1 1 1 1 1 1 1 1 1 1 1 1 1 1 1 2 3 3 2 2 2 2 2 2 2 2 2 1 1 1 1 1 1 1 1 1 1 1 1 1 1 1 1
1 1 2 1 1 1 1 1 1 1 1 1 1 1 1 2 3 3 3 2 2 2 2 2 2 2 1 1 1 1 1 1 1 1 1 1 1 1 1 1 1 1 1
2 2 2 2 2 1 1 1 1 1 1 2 2 2 2 2 3 3 3 3 3 2 2 2 2 2 2 1 1 1 1 1 1 1 1 1 1 1 1 1 1 1 1
2 2 2 2 2 2 2 2 2 2 2 2 2 2 2 2 2 2 2 3 3 3 2 2 2 2 2 2 1 1 1 1 1 1 1 1 1 1 1 1 1 1 1
2 2 2 2 2 2 2 2 2 2 3 3 3 3 3 3 2 2 2 2 2 2 2 2 2 2 2 2 2 1 1 1 1 1 1 1 1 1 1 1 1 1 1
2 2 3 3 3 2 2 2 2 3 3 3 4 4 4 3 2 2 2 2 2 2 2 2 2 2 2 2 2 1 1 1 1 1 1 1 1 1 1 1 1 1 1
3 3 4 3 3 3 3 3 3 3 3 4 5 5 5 4 3 2 2 2 2 2 2 2 2 2 2 2 1 1 1 1 1 1 1 1 1 1 1 1 1 1 1
3 4 4 4 3 3 3 3 3 3 4 5 6 6 6 5 4 3 3 2 2 1 1 1 2 2 2 2 2 1 1 1 1 1 1 1 1 1 1 1 1 1 1
3 4 4 4 4 3 3 3 4 4 5 6 7 7 7 5 4 4 3 3 2 1 1 1 1 2 2 2 2 1 1 1 1 0 0 0 0 0 0 0 1 1 1
3 3 4 4 3 3 3 4 4 6 7 8 7 7 6 5 5 5 4 3 2 2 1 1 1 2 3 2 2 1 1 1 0 0 0 0 0 0 0 0 0 0 0
3 3 3 3 3 3 4 5 6 7 8 8 7 6 6 5 4 4 4 4 4 3 2 1 2 2 2 2 1 1 1 1 0 0 0 0 0 0 0 0 0 0 0
3 3 3 3 3 3 4 6 7 7 7 7 6 5 5 4 4 3 4 4 5 4 3 2 2 3 2 2 1 1 1 1 1 0 0 0 0 0 0 0 0 0 0
3 3 3 3 4 5 6 7 8 8 7 7 5 4 4 3 3 3 3 3 4 5 4 3 3 2 2 2 2 1 1 1 1 0 0 0 0 0 0 0 0 0 0
4 4 4 4 5 6 7 7 7 7 6 5 4 4 3 3 3 3 3 3 3 3 3 3 3 2 2 2 1 1 1 1 1 1 0 0 0 0 0 0 0 0 0
4 5 5 6 6 6 6 6 5 5 4 4 3 3 3 2 2 2 2 2 2 2 2 2 2 2 2 1 1 1 1 1 1 1 1 1 1 1 0 0 0 0 0
5 6 6 6 6 5 3 3 3 3 2 3 3 3 3 2 2 2 1 1 1 1 2 2 2 2 1 1 1 1 1 1 1 1 1 1 1 1 1 0 0 0 0
6 7 7 5 4 2 1 1 1 1 1 2 2 3 2 2 1 1 1 1 1 1 1 1 1 1 1 1 1 1 1 1 1 1 1 1 1 1 1 1 0 0 0
8 8 6 4 3 1 1 0 0 1 1 1 1 2 2 1 1 1 1 1 1 1 0 1 1 1 1 1 1 1 1 1 1 1 1 1 1 1 1 1 0 0 0
10 9 6 4 2 1 1 0 0 1 1 1 1 1 2 2 1 1 1 1 1 1 0 0 0 1 1 1 1 1 1 1 1 1 1 1 1 1 1 1 0 0 0
11 9 6 4 2 1 1 1 1 1 1 1 2 2 2 2 2 1 1 1 1 1 0 0 0 1 1 1 1 0 0 0 1 1 1 1 1 1 1 0 0 0 0
11 9 6 4 2 2 1 1 1 1 1 2 2 2 2 2 2 1 1 1 1 1 0 0 1 1 0 0 0 0 0 0 0 1 1 1 1 1 1 1 0 0 0
Wind_Speed
1 0 0 0 1 1 1 1 2 2 2 3 3 4 3 3 3 3 3 10 11 10 9 10 9 8 9 9 9 10 10 10 10 10 10 10 10 10 10 11 11 11 11
1 1 0 0 1 1 0 1 2 2 2 2 3 3 2 2 2 2 3 6 10 10 10 10 9 9 8 8 8 8 8 9 9 9 9 9 9 10 10 10 10 11 11
1 1 1 0 1 1 1 1 1 1 2 2 3 2 2 2 2 2 3 4 6 10 11 10 9 9 9 8 8 8 7 8 7 8 8 8 8 9 9 9 10 10 10
1 1 1 1 1 1 1 0 1 1 1 1 1 2 2 2 3 3 3 4 4 5 8 10 10 9 9 9 8 7 7 7 7 7 8 8 8 9 9 10 10 11 10
1 1 1 1 1 1 1 1 0 1 1 1 2 2 2 2 3 4 4 4 4 4 4 7 10 9 9 9 8 7 7 6 6 6 6 7 7 8 8 9 9 10 10
1 1 1 1 1 1 1 1 1 1 1 2 2 1 1 2 2 2 3 3 3 4 5 5 5 5 8 8 7 7 7 6 6 6 6 6 6 6 6 8 9 10 10
1 1 2 1 1 1 1 1 1 2 2 1 1 1 2 2 2 1 1 1 2 3 3 4 4 4 4 7 7 7 7 7 6 6 6 5 6 5 5 6 8 9 10
1 1 1 1 1 1 1 1 1 1 2 1 1 1 1 1 1 2 1 2 2 2 3 4 4 5 4 3 5 7 7 7 7 7 6 5 5 5 5 5 5 6 8
1 1 1 1 1 1 0 1 1 2 1 1 1 1 1 1 0 0 1 1 1 1 2 2 3 4 4 3 4 6 8 7 7 7 7 6 5 5 4 5 5 6 6
1 1 1 1 1 1 1 1 0 1 1 1 1 1 1 0 1 1 0 1 1 2 2 2 2 3 4 3 4 6 8 7 7 8 7 6 6 5 5 6 6 6 6
1 1 1 1 1 1 1 1 1 1 1 1 1 1 1 1 2 1 1 1 1 1 2 2 2 2 3 3 3 5 7 7 7 7 7 7 6 6 6 6 6 6 5
1 1 1 1 1 1 1 1 1 1 1 1 2 2 1 1 1 0 1 1 1 1 1 1 2 2 2 3 3 6 7 7 7 7 7 6 6 6 6 7 7 6 6
1 1 1 1 1 1 1 1 1 2 1 2 2 2 2 1 1 1 0 1 1 1 1 1 1 2 2 2 3 6 6 6 6 6 6 6 6 6 6 6 6 6 5
1 2 1 1 1 1 1 1 1 1 1 1 2 2 2 2 1 1 0 0 1 1 0 1 1 1 2 3 3 5 4 5 6 6 6 6 5 5 5 5 5 5 5
1 2 1 1 1 1 2 1 1 1 1 1 1 1 2 2 1 1 0 0 1 1 1 0 1 1 1 3 4 3 3 5 5 6 7 7 6 5 4 5 5 5 5
2 2 2 1 1 1 2 1 2 1 1 1 1 1 1 2 1 1 1 1 1 1 1 1 1 0 2 2 3 2 2 5 5 6 7 7 6 5 5 5 5 5 5
1 1 1 1 1 1 1 1 1 2 1 2 2 2 2 2 2 2 1 1 1 0 0 0 0 1 1 1 1 1 2 2 3 5 7 7 7 6 6 6 6 6 5
1 1 1 1 1 2 2 2 2 2 2 2 2 2 2 2 2 2 2 2 1 0 1 0 0 0 1 1 2 1 1 0 1 4 6 6 7 7 7 6 6 6 6
0 1 1 1 1 2 2 2 2 2 2 2 2 2 2 2 2 2 2 2 1 1 1 0 1 1 1 1 1 0 0 0 1 2 4 5 6 6 7 6 6 6 6
1 1 1 1 1 2 3 3 2 2 2 2 2 2 2 2 2 2 1 2 1 2 1 0 0 0 1 1 1 0 0 0 1 1 1 2 4 5 7 7 6 6 7
1 1 1 1 1 2 3 3 3 2 2 2 1 1 2 2 2 1 1 1 1 1 1 0 0 1 0 0 0 1 0 0 1 1 0 1 1 2 3 5 6 6 7
1 1 1 2 2 3 4 5 4 3 2 2 2 1 0 1 3 3 2 1 0 0 0 0 0 0 1 1 1 1 1 1 1 1 0 1 1 2 2 3 5 7 8
1 1 1 2 2 3 4 4 4 2 2 2 2 2 3 2 2 1 0 1 1 2 3 2 2 2 2 1 1 1 2 2 2 2 1 2 1 2 2 3 6 8 8
1 1 1 1 1 1 1 3 4 3 2 2 2 1 1 2 3 2 2 1 1 2 3 2 2 2 2 1 1 2 2 2 2 2 2 2 2 2 2 1 5 8 8
1 1 1 1 1 1 0 1 3 2 1 1 1 1 1 2 2 3 1 2 2 2 2 2 2 3 4 4 3 1 2 2 3 2 1 1 2 2 2 2 4 8 8
2 2 1 1 1 1 2 1 1 2 2 1 1 1 2 1 2 2 1 2 2 3 3 3 2 3 4 4 6 4 4 3 2 2 2 1 2 1 2 2 1 3 4
Wind_Direction
38 35 220 216 252 215 191 209 228 229 221 221 231 227 238 233 194 180 165 171 175 178 183 191 200 203 204 207 208 211 212 210 206 202 204 207 208 209 210 206 203 199 199
43 7 334 26 297 296 202 236 244 237 228 226 231 230 234 243 208 183 166 174 182 184 189 195 201 202 203 207 207 207 208 207 205 204 205 207 207 208 208 207 204 202 201
43 1 329 73 359 321 274 237 257 253 237 225 221 213 217 223 214 203 185 179 184 192 196 198 200 198 198 202 201 203 204 200 197 198 199 201 202 203 203 204 202 202 201
48 356 338 50 352 322 346 241 229 257 255 248 240 205 202 209 213 198 202 187 181 187 193 198 197 194 197 201 200 198 190 187 187 191 199 202 203 203 203 204 205 202 201
42 15 2 44 333 327 359 305 64 267 269 268 250 211 203 208 211 203 198 196 179 171 168 179 186 189 194 196 194 191 189 186 185 189 191 196 203 207 207 207 207 203 201
47 15 327 68 350 346 354 346 332 284 257 257 259 250 234 216 203 201 202 193 184 179 166 159 167 181 185 187 186 185 183 181 184 186 188 194 197 200 204 206 207 205 202
44 32 348 3 346 12 359 322 317 296 272 254 273 283 269 228 196 200 188 174 175 169 162 153 156 157 165 171 171 174 177 180 181 182 183 189 193 193 197 200 203 205 203
13 42 1 336 2 9 336 311 322 295 280 260 225 240 251 247 241 203 177 178 179 156 167 165 160 163 165 163 168 177 183 186 189 186 182 187 193 190 191 196 194 196 201
60 344 15 345 333 314 268 277 276 288 284 294 256 228 241 238 300 257 207 172 161 166 165 163 160 157 164 158 163 182 186 189 193 192 188 189 191 192 195 199 196 195 196
28 15 26 358 334 344 341 278 281 284 275 279 288 272 258 189 208 198 227 185 184 190 188 182 148 155 156 155 153 160 180 185 188 191 193 193 190 191 197 204 204 203 201
66 34 31 357 336 347 337 334 341 311 296 297 296 297 290 275 256 197 197 251 259 221 192 164 155 152 153 154 152 160 175 181 185 189 192 194 193 195 199 200 203 206 203
89 42 33 11 345 336 341 340 326 317 327 328 316 314 310 294 288 281 188 214 237 253 215 163 164 154 153 151 156 160 168 175 182 189 194 196 197 199 203 201 203 211 209
76 58 24 22 348 347 359 344 315 321 340 320 297 307 322 302 299 319 234 232 239 257 206 148 130 147 149 132 142 153 161 170 178 184 192 197 199 200 202 202 201 208 207
37 61 38 23 11 4 344 350 315 308 317 313 315 323 302 309 347 1 22 345 299 304 40 149 132 129 130 128 135 151 156 161 172 179 181 185 189 196 199 199 196 202 209
31 38 31 42 19 358 334 342 326 314 328 306 320 323 306 300 318 340 337 172 201 262 277 260 96 126 130 120 145 166 155 167 176 183 184 187 190 195 198 192 193 195 201
27 15 10 22 11 1 354 353 325 315 320 300 278 300 319 324 335 332 314 267 237 236 282 344 355 111 97 111 147 145 150 167 181 182 188 189 194 194 193 190 191 193 196
19 350 351 358 2 1 2 355 330 353 3 337 333 355 348 332 339 334 325 314 283 190 142 321 16 47 62 114 119 138 148 165 175 184 186 189 196 197 194 195 194 194 199
30 3 4 356 359 13 8 2 345 359 358 346 346 0 353 342 348 340 339 334 344 37 131 163 149 132 71 94 128 157 154 201 175 180 184 191 199 198 196 195 192 194 199
61 48 33 11 11 13 7 357 359 356 358 0 1 9 360 348 340 346 353 342 351 356 72 157 227 164 133 106 94 67 317 10 277 165 176 189 198 200 197 193 194 197 199
64 59 35 19 26 24 12 3 7 15 14 12 15 25 11 1 342 331 333 342 4 20 30 5 99 61 74 95 99 121 285 254 286 280 171 186 192 200 199 196 196 199 202
35 52 55 32 37 35 20 12 351 18 356 349 6 27 27 38 50 23 350 22 7 14 26 14 64 36 30 64 338 281 277 283 274 252 140 208 187 197 195 201 202 202 200
56 56 46 44 27 25 30 27 16 357 342 341 343 338 346 51 64 70 51 41 0 291 333 12 292 258 260 264 285 279 280 283 291 276 233 263 208 203 215 202 198 199 200
156 167 96 83 62 41 24 19 5 328 315 328 342 343 339 26 53 51 26 287 270 255 231 223 226 240 249 253 259 272 271 275 276 256 244 257 234 229 231 215 189 195 200
185 177 130 130 122 69 39 13 342 303 310 325 325 336 357 33 9 2 334 319 292 283 260 230 221 234 251 249 235 250 253 260 257 254 224 246 244 243 249 214 197 198 201
188 202 201 176 137 121 107 10 340 300 292 312 345 24 47 64 13 349 318 308 307 300 286 268 246 243 248 260 252 245 248 252 261 253 230 242 255 261 250 232 213 202 206
222 218 179 166 174 170 155 190 295 291 297 303 270 125 79 62 356 346 292 287 294 304 312 311 286 265 241 234 234 227 229 238 250 252 227 230 244 251 275 254 213 196 212